Terminal Aerodrome Forecast
Issued by NWS Twin Cities, MN

Home | Current Version | Previous Version | Graphics & Text | Print | Product List | Glossary On
Versions: 1 2 3 4 5 6 7 8 9 10 11 12 13 14 15 16 17 18 19 20 21 22 23 24 25 26 27
000
FTUS43 KMPX 291550 AAB
TAFMSP
TAF AMD
KMSP 291550Z 2916/3018 24012G20KT P6SM BKN020
     FM291700 28020G30KT P6SM -RA OVC015
     FM292000 30027G36KT P6SM SCT030
     FM292200 30020G30KT P6SM FEW100
     FM300100 28013KT P6SM SKC=

USA.gov is the U.S. government's official web portal to all federal, state and local government web resources and services.